Tiempo atmosférico en la estación meteorológica de Agulo, Santa Cruz de Tenerife (765 m.)



Fecha
DESCASC
Temp. máxima en grados centígrados (hora)
DESCASC
Temp. mínima en grados centígrados (hora)
DESCASC
Temp. media en grados centígrados
DESCASC
Racha de viento máxima en m/sg (hora)
DESCASC
Velocidad máxima media en intervalos de 10 minutos(hora)
DESCASC
Precipitaciones diarias en mm
DESCASC
Precipitaciones de 00:00 a 06:00 en mm
DESCASC
Precipitaciones de 06:00 a 12:00 en mm
DESCASC
Precipitaciones de 12:00 a 18:00 en mm
DESCASC
Precipitaciones de 18:00 a 24:00 en mm
DESCASC
19-04-2018 19.6 (14:00) 11.3 (07:50) 15.5 11.39 (19:00) 4.17 (19:00) 0 0 0 0 0
18-04-2018 20.1 (16:00) 11.4 (05:30) 15.8 5 (08:10) 3.33 (01:40) 0 0 0 0 0
17-04-2018 20 (17:40) 11.1 (06:20) 15.6 4.72 (15:40) 2.5 (19:20) 0 0 0 0 0
16-04-2018 16.5 (18:10) 10.7 (06:40) 13.6 4.72 (05:30) 1.94 (00:20) 0 0 0 0 0
15-04-2018 14.7 (14:10) 11 (00:00) 12.8 5.28 (15:00) 2.5 (23:30) 0 0 0 0 0
14-04-2018 15.3 (17:50) 9.8 (00:00) 12.6 6.11 (01:10) 2.22 (19:50) 0 0 0 0 0
13-04-2018 14.7 (15:10) 9.4 (00:00) 12 8.89 (01:30) 3.33 (00:20) 6.2 6.2 0 0 0
12-04-2018 16.2 (14:50) 10.9 (00:00) 13.6 9.44 (22:50) 4.17 (16:40) 2.8 1 0.2 0 1.6
11-04-2018 15.1 (15:00) 10.7 (00:00) 12.9 8.89 (22:20) 3.89 (06:40) 0.6 0 0 0.2 0.4
10-04-2018 14.4 (12:10) 9.3 (00:00) 11.8 9.17 (00:30) 5 (12:10) 0 0 0 0 0
09-04-2018 14.6 (15:40) 8.7 (00:00) 11.7 13.33 (00:40) 3.89 (01:00) 1.4 0.2 0.2 0 1
08-04-2018 13.9 (16:10) 10 (00:00) 11.9 11.39 (23:50) 4.17 (23:50) 3 0 0.2 0.4 2.4
07-04-2018 15.5 (14:40) 9.9 (00:00) 12.7 11.11 (02:40) 3.06 (02:40) 0 0 0 0 0
06-04-2018 19.1 (14:20) 9.2 (00:00) 14.2 9.72 (20:00) 3.61 (15:00) 0.2 0 0 0 0.2
05-04-2018 17.2 (14:50) 10.3 (00:00) 13.8 5.28 (15:00) 2.5 (07:40) 0 0 0 0 0
04-04-2018 14.3 (14:20) 10.7 (00:00) 12.5 7.78 (03:40) 3.33 (15:40) 0.4 0 0.4 0 0
03-04-2018 17.6 (15:40) 10.6 (00:00) 14.1 5.83 (16:30) 2.22 (11:50) 0 0 0 0 0
02-04-2018 17.1 (16:00) 11.2 (00:00) 14.2 12.78 (03:30) 7.78 (02:00) 0 0 0 0 0
01-04-2018 18.6 (15:20) 9.5 (00:00) 14.1 14.72 (21:10) 10 (23:30) 0 0 0 0 0
31-03-2018 18.6 (16:10) 9.6 (00:00) 14.1 6.67 (08:40) 2.78 (08:40) 0 0 0 0 0
30-03-2018 12.2 (00:00) 9.6 (00:00) 10.9 6.39 (08:00) 2.5 (12:20) 0.2 0 0 0.2 0
29-03-2018 18.9 (00:30) 12.2 (00:00) 15.5 6.67 (23:40) 3.06 (05:10) 0 0 0 0 0
28-03-2018 22.1 (14:30) 11.9 (00:00) 17 10.83 (07:30) 6.67 (07:30) 0 0 0 0 0
27-03-2018 12.1 (16:10) 10 (00:00) 11.1 6.39 (00:20) 2.22 (04:50) 0 0 0 0 0
26-03-2018 13.5 (14:30) 10.3 (00:00) 11.9 8.61 (21:50) 3.06 (13:20) 2 2 0 0 0
25-03-2018 12.4 (16:10) 9.8 (00:00) 11.1 8.33 (10:00) 3.33 (23:59) 0 0 0 0 0
24-03-2018 16.6 (14:40) 9.9 (00:00) 13.3 7.5 (22:10) 3.06 (22:10) 0 0 0 0 0
23-03-2018 12.9 (15:10) 9.2 (00:00) 11 5.83 (00:40) 2.22 (10:30) 0 0 0 0 0

Gráficas

Temp. máximas Temp. mínimas Temp. medias Precipitaciones Rachas de viento máximas Velocidades máximas media en intervalos de 10 minutos

Datos horarios

Fecha y hora oficial Temperatura (ºC) Velocidad del viento (km/h) Dirección del viento Racha (km/h) Dirección de racha Precipitación (mm) Presión (hPa) Tendencia (hPa) Humedad (%)
2018-04-21 23:00:00 11.5 10 Norte 36 Norte 0 -- -- 100
2018-04-21 22:00:00 11.7 11 Norte 32 Norte 0 -- -- 100
2018-04-21 21:00:00 11.8 11 Norte 34 Norte 0 -- -- 100
2018-04-21 20:00:00 11.7 10 Norte 30 Oeste 0 -- -- 100
2018-04-21 19:00:00 11.7 13 Norte 36 Norte 0 -- -- 100
2018-04-21 18:00:00 11.7 13 Norte 46 Norte 0 -- -- 100
2018-04-21 17:00:00 11.7 10 Norte 44 Norte 0.6 -- -- 100
2018-04-21 16:00:00 11.6 11 Norte 34 Oeste 0 -- -- 99
2018-04-21 15:00:00 11.9 13 Norte 33 Noroeste 0 -- -- 99
2018-04-21 14:00:00 11.9 11 Norte 46 Nordeste 0 -- -- 98
2018-04-21 13:00:00 11.8 13 Norte 41 Nordeste 0 -- -- 97
2018-04-21 12:00:00 11.6 12 Norte 32 Nordeste 0 -- -- 97
2018-04-21 11:00:00 11.2 13 Norte 34 Nordeste 0 -- -- 96
2018-04-21 10:00:00 10.6 13 Norte 34 Nordeste 0 -- -- 99
2018-04-21 09:00:00 10.5 15 Nordeste 36 Norte 0 -- -- 94
2018-04-21 08:00:00 10.1 12 Norte 33 Nordeste 0 -- -- 92
2018-04-21 07:00:00 10 13 Nordeste 42 Nordeste 0 -- -- 96
2018-04-21 06:00:00 10 12 Norte 35 Norte 0 -- -- 93
2018-04-21 05:00:00 9.9 10 Nordeste 31 Nordeste 0 -- -- 90
2018-04-21 04:00:00 10 8 Norte 27 Norte 0 -- -- 91
2018-04-21 03:00:00 10 8 Norte 24 Norte 0 -- -- 89
2018-04-21 02:00:00 10 7 Nordeste 32 Nordeste 0 -- -- 92
2018-04-21 01:00:00 10.2 7 Noroeste 26 Noroeste 0 -- -- 92
2018-04-21 00:00:00 10 8 Nordeste 33 Sudeste 0 -- -- 85
2018-04-20 23:00:00 10.2 9 Sudoeste 35 Norte 0 -- -- 87
2018-04-20 22:00:00 10.4 10 Norte 34 Nordeste 0 -- -- 89
2018-04-20 21:00:00 10.2 10 Sudoeste 30 Nordeste 0 -- -- 80
2018-04-20 20:00:00 10.5 11 Noroeste 31 Nordeste 0 -- -- 78
2018-04-20 19:00:00 10.9 11 Este 41 Nordeste 0 -- -- 71
2018-04-20 18:00:00 10.9 15 Nordeste 38 Nordeste 0 -- -- 75
2018-04-20 17:00:00 11.3 13 Sudoeste 48 Este 0 -- -- 81
2018-04-20 16:00:00 11.4 12 Nordeste 42 Este 0 -- -- 84
2018-04-20 15:00:00 12.5 11 Sur 32 Sur 0 -- -- 76
2018-04-20 14:00:00 13.3 9 Sudoeste 22 Oeste 0 -- -- 79
2018-04-20 13:00:00 12.4 9 Sudoeste 32 Sur 0 -- -- 79
2018-04-20 12:00:00 11.5 9 Sudoeste 32 Norte 0 -- -- 84
2018-04-20 11:00:00 10.2 12 Sudoeste 27 Sudoeste 0 -- -- 98
2018-04-20 10:00:00 10.3 9 Sudoeste 26 Sudeste 0 -- -- 100
2018-04-20 09:00:00 10.1 8 Sudeste 31 Este 0 -- -- 100
2018-04-20 08:00:00 9.5 6 Sudoeste 32 Sudoeste 0 -- -- 100
2018-04-20 07:00:00 9.8 9 Sur 28 Este 0 -- -- 99
2018-04-20 06:00:00 10.5 10 Sur 25 Sudeste 0.2 -- -- 100
2018-04-20 05:00:00 10.3 9 Sudoeste 33 Sudeste 0 -- -- 100
2018-04-20 04:00:00 10.7 9 Sudoeste 22 Sudoeste 0 -- -- 96
2018-04-20 03:00:00 10.7 13 Sur 27 Sur 0 -- -- 98
2018-04-20 02:00:00 11.1 8 Sur 24 Nordeste 0 -- -- 100
2018-04-20 01:00:00 11 8 Sudoeste 23 Sudeste 0 -- -- 100
2018-04-20 00:00:00 11.4 10 Sudoeste 32 Sur 0 -- -- 100
2018-04-19 23:00:00 11.5 13 Sudoeste 26 Sudoeste 0 -- -- 100
2018-04-19 22:00:00 11.9 9 Sudoeste 35 Sudeste 0 -- -- 99
2018-04-19 21:00:00 11.4 9 Sudeste 37 Norte 0 -- -- 96
2018-04-19 20:00:00 11.7 11 Sur 40 Nordeste 0 -- -- 100
2018-04-19 19:00:00 12.5 15 Nordeste 41 Nordeste 0 -- -- 99
2018-04-19 18:00:00 13.2 11 Nordeste 31 Nordeste 0 -- -- 99
2018-04-19 17:00:00 13.8 7 Norte 32 Norte 0 -- -- 98
2018-04-19 16:00:00 15.2 8 Norte 27 Norte 0 -- -- 92
2018-04-19 15:00:00 18.1 10 Norte 26 Norte 0 -- -- 73
2018-04-19 14:00:00 19.6 10 Norte 21 Norte 0 -- -- 50
2018-04-19 13:00:00 19.4 9 Norte 18 Noroeste 0 -- -- 57
2018-04-19 12:00:00 18.8 5 Norte 15 Norte 0 -- -- 52
2018-04-19 11:00:00 17.5 4 Norte 15 Nordeste 0 -- -- 51
2018-04-19 10:00:00 14.9 5 Nordeste 17 Este 0 -- -- 65
2018-04-19 09:00:00 13.2 6 Sudeste 22 Este 0 -- -- 75
2018-04-19 08:00:00 11.3 4 Oeste 18 Este 0 -- -- 95
2018-04-19 07:00:00 11.6 3 Este 10 Norte 0 -- -- 98
2018-04-19 06:00:00 12.2 4 Sur 23 Nordeste 0 -- -- 99
2018-04-19 05:00:00 12.2 5 Este 13 Este 0 -- -- 98
2018-04-19 04:00:00 12.1 3 Sudoeste 18 Sudeste 0 -- -- 97
2018-04-19 03:00:00 12.2 3 Este 20 Norte 0 -- -- 98
2018-04-19 02:00:00 12.7 5 Este 19 Este 0 -- -- 99
2018-04-19 01:00:00 12.9 5 Nordeste 15 Este 0 -- -- 98
2018-04-19 00:00:00 12.9 4 Este 10 Sudeste 0 -- -- 96
2018-04-18 23:00:00 13.1 2 Sudoeste 12 Nordeste 0 -- -- 98
2018-04-18 22:00:00 13.1 4 Nordeste 8 Este 0 -- -- 96
2018-04-18 21:00:00 13.4 4 Nordeste 11 Nordeste 0 -- -- 95
2018-04-18 20:00:00 13.9 4 Norte 15 Norte 0 -- -- 93
2018-04-18 19:00:00 14.7 6 Norte 13 Noroeste 0 -- -- 89
2018-04-18 18:00:00 15.7 7 Norte 17 Norte 0 -- -- 87
2018-04-18 17:00:00 19.5 4 Sur 13 Norte 0 -- -- 71
2018-04-18 16:00:00 20.1 5 Sur 12 Sur 0 -- -- 71
2018-04-18 15:00:00 18.9 5 Sur 13 Sudeste 0 -- -- 77
2018-04-18 14:00:00 16.6 6 Norte 17 Norte 0 -- -- 82
2018-04-18 13:00:00 17 6 Norte 13 Nordeste 0 -- -- 80
2018-04-18 12:00:00 17.4 4 Sudeste 14 Este 0 -- -- 80
2018-04-18 11:00:00 14.7 5 Norte 13 Norte 0 -- -- 88
2018-04-18 10:00:00 13.1 5 Norte 15 Norte 0 -- -- 95
2018-04-18 09:00:00 12.4 4 Norte 18 Norte 0 -- -- 99
2018-04-18 08:00:00 12 6 Norte 16 Nordeste 0 -- -- 99
2018-04-18 07:00:00 11.9 5 Noroeste 13 Nordeste 0 -- -- 99
2018-04-18 06:00:00 11.6 3 Sudeste 14 Sudeste 0 -- -- 85
2018-04-18 05:00:00 11.8 3 Sur 15 Norte 0 -- -- 95
2018-04-18 04:00:00 12.3 2 Este 13 Norte 0 -- -- 98
2018-04-18 03:00:00 12.3 8 Norte 16 Norte 0 -- -- 98
2018-04-18 02:00:00 12.6 10 Norte 16 Nordeste 0 -- -- 88
2018-04-18 01:00:00 15.7 6 Norte 14 Norte 0 -- -- 42
2018-04-18 00:00:00 14.7 8 Noroeste 11 Noroeste 0 -- -- 56
2018-04-17 23:00:00 12.4 4 Noroeste 10 Norte 0 -- -- 74
2018-04-17 22:00:00 12.8 6 Oeste 13 Sudoeste 0 -- -- 66
2018-04-17 21:00:00 13.2 4 Norte 9 Norte 0 -- -- 95
2018-04-17 20:00:00 14.6 5 Norte 16 Norte 0 -- -- 93
2018-04-17 19:00:00 16.1 4 Norte 12 Norte 0 -- -- 86
2018-04-17 18:00:00 19.7 3 Noroeste 11 Sur 0 -- -- 73
2018-04-17 17:00:00 19.4 6 Sur 14 Sur 0 -- -- 75
2018-04-17 16:00:00 18.7 4 Sur 17 Sur 0 -- -- 75
2018-04-17 15:00:00 18.7 7 Sudeste 13 Sudeste 0 -- -- 76
2018-04-17 14:00:00 17.8 8 Sur 15 Sur 0 -- -- 79
2018-04-17 13:00:00 17.4 5 Sudeste 12 Sudeste 0 -- -- 82
2018-04-17 12:00:00 16.7 4 Sudeste 12 Sur 0 -- -- 82
2018-04-17 11:00:00 15.1 8 Sur 14 Sur 0 -- -- 87
2018-04-17 10:00:00 12.6 4 Sur 7 Sudeste 0 -- -- 97
2018-04-17 09:00:00 11.7 3 Oeste 9 Sudeste 0 -- -- 98
2018-04-17 08:00:00 11.3 4 Nordeste 8 Norte 0 -- -- 98
2018-04-17 07:00:00 11.1 4 Sudoeste 9 Sudoeste 0 -- -- 97
2018-04-17 06:00:00 11.3 2 Sudeste 6 Nordeste 0 -- -- 97
2018-04-17 05:00:00 11.5 3 Sur 9 Sur 0 -- -- 97
2018-04-17 04:00:00 11.5 3 Sur 8 Sudoeste 0 -- -- 97
2018-04-17 03:00:00 11.7 3 Sudeste 11 Nordeste 0 -- -- 97
2018-04-17 02:00:00 11.8 3 Sur 13 Este 0 -- -- 97
2018-04-17 01:00:00 12 3 Sur 9 Sudoeste 0 -- -- 98
2018-04-17 00:00:00 11.8 4 Sudoeste 10 Nordeste 0 -- -- 97
2018-04-16 23:00:00 11.9 3 Sudoeste 8 Sudoeste 0 -- -- 95
2018-04-16 22:00:00 12.2 2 Sur 10 Sudeste 0 -- -- 92
2018-04-16 21:00:00 12.9 4 Sur 10 Sudeste 0 -- -- 94
2018-04-16 20:00:00 13.5 4 Norte 9 Norte 0 -- -- 91
2018-04-16 19:00:00 15.4 3 Sur 10 Nordeste 0 -- -- 88
2018-04-16 18:00:00 15.9 3 Norte 10 Norte 0 -- -- 85
2018-04-16 17:00:00 15 4 Norte 12 Nordeste 0 -- -- 90
2018-04-16 16:00:00 14.4 3 Oeste 13 Este 0 -- -- 94
2018-04-16 15:00:00 14.1 5 Nordeste 12 Nordeste 0 -- -- 95
2018-04-16 14:00:00 14.3 3 Nordeste 13 Norte 0 -- -- 94
2018-04-16 13:00:00 14.6 5 Noroeste 14 Sudeste 0 -- -- 88
2018-04-16 12:00:00 15.1 5 Nordeste 17 Nordeste 0 -- -- 85
2018-04-16 11:00:00 14.9 5 Este 14 Sudeste 0 -- -- 81
2018-04-16 10:00:00 12.2 4 Este 15 Sudeste 0 -- -- 98
2018-04-16 09:00:00 11.5 3 Sudeste 12 Sudeste 0 -- -- 100
2018-04-16 08:00:00 11.1 3 Este 13 Norte 0 -- -- 100
2018-04-16 07:00:00 11 4 Nordeste 11 Norte 0 -- -- 100
2018-04-16 06:00:00 11.2 5 Norte 17 Norte 0 -- -- 100
2018-04-16 05:00:00 11 4 Norte 10 Norte 0 -- -- 98
2018-04-16 04:00:00 11.5 4 Sudeste 12 Nordeste 0 -- -- 99
2018-04-16 03:00:00 11.7 3 Sudeste 14 Este 0 -- -- 100
2018-04-16 02:00:00 11.6 4 Sur 10 Este 0 -- -- 100
2018-04-16 01:00:00 11.8 4 Sur 15 Norte 0 -- -- 99
2018-04-16 00:00:00 11.9 3 Este 17 Nordeste 0 -- -- 99
2018-04-15 23:00:00 12 5 Este 18 Este 0 -- -- 99
2018-04-15 22:00:00 12 4 Sudeste 17 Nordeste 0 -- -- 99
2018-04-15 21:00:00 12.3 5 Nordeste 15 Sudeste 0 -- -- 99
2018-04-15 20:00:00 12.6 3 Sudeste 14 Sudeste 0 -- -- 96
2018-04-15 19:00:00 13.2 5 Sudeste 12 Sudeste 0 -- -- 95
2018-04-15 18:00:00 13.3 3 Sur 15 Sudeste 0 -- -- 96
2018-04-15 17:00:00 13.6 3 Sur 15 Sudeste 0 -- -- 95
2018-04-15 16:00:00 13.7 5 Este 17 Sudeste 0 -- -- 94
2018-04-15 15:00:00 14.4 7 Sudeste 19 Sudeste 0 -- -- 88
2018-04-15 14:00:00 14.5 6 Sudeste 18 Este 0 -- -- 86
2018-04-15 13:00:00 13.2 4 Este 17 Sudeste 0 -- -- 95
2018-04-15 12:00:00 12.5 4 Este 16 Este 0 -- -- 100
2018-04-15 11:00:00 12.1 4 Sur 18 Sudeste 0 -- -- 100
2018-04-15 10:00:00 11.7 3 Sur 12 Este 0 -- -- 100
2018-04-15 09:00:00 11.3 4 Sudeste 15 Sudeste 0 -- -- 100
2018-04-15 08:00:00 11.1 4 Este 15 Este 0 -- -- 100
2018-04-15 07:00:00 11.1 4 Sudeste 14 Este 0 -- -- 100
2018-04-15 06:00:00 11.1 4 Sur 14 Nordeste 0 -- -- 100
2018-04-15 05:00:00 11.1 5 Este 14 Nordeste 0 -- -- 100
2018-04-15 04:00:00 11.1 3 Sudeste 15 Nordeste 0 -- -- 100
2018-04-15 03:00:00 11.2 3 Sur 14 Este 0 -- -- 100
2018-04-15 02:00:00 11.2 3 Sur 15 Este 0 -- -- 99
2018-04-15 01:00:00 11.4 4 Sur 14 Oeste 0 -- -- 99
2018-04-15 00:00:00 11.4 4 Sudeste 13 Este 0 -- -- 98
2018-04-14 23:00:00 11.5 4 Sudeste 15 Sudeste 0 -- -- 98
2018-04-14 22:00:00 11.6 4 Sudeste 13 Este 0 -- -- 97
2018-04-14 21:00:00 11.6 4 Sudeste 12 Sudeste 0 -- -- 95
2018-04-14 20:00:00 12.5 6 Sudeste 17 Sudeste 0 -- -- 91
2018-04-14 19:00:00 14 7 Sudeste 16 Este 0 -- -- 84
2018-04-14 18:00:00 15.3 5 Sudeste 14 Sudeste 0 -- -- 72
2018-04-14 17:00:00 15.1 5 Sur 18 Sudeste 0 -- -- 79
2018-04-14 16:00:00 14.5 6 Sur 20 Sudeste 0 -- -- 83
2018-04-14 15:00:00 14.3 6 Este 18 Sudeste 0 -- -- 87
2018-04-14 14:00:00 14.3 7 Sudeste 20 Nordeste 0 -- -- 87
2018-04-14 13:00:00 14.1 5 Este 18 Este 0 -- -- 85
2018-04-14 12:00:00 13.7 4 Este 14 Nordeste 0 -- -- 87
2018-04-14 11:00:00 12.1 3 Este 17 Nordeste 0 -- -- 93
2018-04-14 10:00:00 11.7 4 Sudoeste 15 Sudeste 0 -- -- 95
2018-04-14 09:00:00 10.8 6 Sudeste 15 Sudeste 0 -- -- 99
2018-04-14 08:00:00 10.4 6 Sudeste 15 Este 0 -- -- 98
2018-04-14 07:00:00 9.8 6 Sur 16 Este 0 -- -- 96
2018-04-14 06:00:00 10 5 Sur 15 Sur 0 -- -- 95
2018-04-14 05:00:00 9.9 6 Sudoeste 14 Este 0 -- -- 95
2018-04-14 04:00:00 10.3 6 Sur 14 Este 0 -- -- 95
2018-04-14 03:00:00 10.3 6 Sudoeste 20 Sudeste 0 -- -- 95
2018-04-14 02:00:00 10.4 6 Sudoeste 22 Este 0 -- -- 96
2018-04-14 01:00:00 10.7 7 Sudeste 21 Nordeste 0 -- -- 97
2018-04-14 00:00:00 10.7 6 Sudeste 19 Sudeste 0 -- -- 97
2018-04-13 23:00:00 10.6 7 Sur 23 Este 0 -- -- 96
2018-04-13 22:00:00 10.7 8 Sur 22 Sur 0 -- -- 96
2018-04-13 21:00:00 10.9 5 Sur 18 Sur 0 -- -- 95
2018-04-13 20:00:00 11.2 8 Sudoeste 19 Sudoeste 0 -- -- 93
2018-04-13 19:00:00 11.5 8 Sudoeste 21 Sudoeste 0 -- -- 91
2018-04-13 18:00:00 12.2 8 Sudoeste 22 Sudeste 0 -- -- 90
2018-04-13 17:00:00 12.8 6 Sur 18 Oeste 0 -- -- 90
2018-04-13 16:00:00 14.4 6 Oeste 26 Sudeste 0 -- -- 80
2018-04-13 15:00:00 14.3 8 Oeste 25 Sur 0 -- -- 82
2018-04-13 14:00:00 13.4 6 Sudoeste 23 Sudeste 0 -- -- 89
2018-04-13 13:00:00 14 9 Sur 24 Nordeste 0 -- -- 84
2018-04-13 12:00:00 12.7 7 Oeste 23 Sur 0 -- -- 92
2018-04-13 11:00:00 11.5 8 Sudoeste 20 Nordeste 0 -- -- 99
2018-04-13 10:00:00 11.5 6 Sur 21 Sudoeste 0 -- -- 99
2018-04-13 09:00:00 10.9 8 Sudoeste 25 Sudeste 0 -- -- 100
2018-04-13 08:00:00 10.5 6 Sudoeste 23 Norte 0 -- -- 100
2018-04-13 07:00:00 10.1 6 Este 22 Noroeste 0 -- -- 99
2018-04-13 06:00:00 9.5 7 Norte 17 Oeste 0 -- -- 99
2018-04-13 05:00:00 10.1 5 Sur 21 Noroeste 0 -- -- 100
2018-04-13 04:00:00 10.4 9 Sur 28 Sur 0 -- -- 100
2018-04-13 03:00:00 11.4 7 Sudoeste 22 Noroeste 0.2 -- -- 100
2018-04-13 02:00:00 12.3 10 Sur 32 Norte 2.6 -- -- 100
2018-04-13 01:00:00 12.8 10 Norte 30 Noroeste 3.4 -- -- 100
2018-04-13 00:00:00 12.9 11 Norte 31 Norte 1.6 -- -- 100
2018-04-12 23:00:00 12.6 13 Norte 34 Norte 0 -- -- 100
2018-04-12 22:00:00 12.4 8 Norte 22 Noroeste 0 -- -- 100
2018-04-12 21:00:00 12.4 9 Norte 24 Norte 0 -- -- 100
2018-04-12 20:00:00 12.7 9 Norte 28 Norte 0 -- -- 99
2018-04-12 19:00:00 12.7 9 Norte 28 Nordeste 0 -- -- 96
2018-04-12 18:00:00 13.1 11 Norte 26 Nordeste 0 -- -- 88
2018-04-12 17:00:00 14.9 10 Norte 27 Noroeste 0 -- -- 84
2018-04-12 16:00:00 14.5 12 Norte 28 Norte 0 -- -- 82
2018-04-12 15:00:00 15 10 Norte 28 Norte 0 -- -- 82
2018-04-12 14:00:00 15.9 10 Norte 21 Norte 0 -- -- 82
2018-04-12 13:00:00 14.2 9 Norte 21 Noroeste 0 -- -- 93
2018-04-12 12:00:00 12.8 9 Norte 21 Noroeste 0 -- -- 98
2018-04-12 11:00:00 12 9 Norte 28 Norte 0 -- -- 100
2018-04-12 10:00:00 11.2 11 Norte 29 Norte 0 -- -- 100
2018-04-12 09:00:00 11.4 11 Norte 28 Norte 0 -- -- 100
2018-04-12 08:00:00 11.5 8 Norte 23 Norte 0 -- -- 100
2018-04-12 07:00:00 11.4 6 Nordeste 18 Nordeste 0.2 -- -- 100
2018-04-12 06:00:00 11.6 6 Oeste 18 Sudeste 0 -- -- 100
2018-04-12 05:00:00 12 6 Sudeste 23 Nordeste 0.2 -- -- 100
2018-04-12 04:00:00 12.2 7 Sudoeste 18 Nordeste 0.8 -- -- 100
2018-04-12 03:00:00 11.8 3 Sur 18 Norte 0 -- -- 100
2018-04-12 02:00:00 11.4 6 Nordeste 19 Noroeste 0 -- -- 100
2018-04-12 01:00:00 10.9 4 Sur 20 Noroeste 0 -- -- 100
2018-04-12 00:00:00 12.5 9 Sudoeste 26 Oeste 0 -- -- 100
2018-04-11 23:00:00 12.3 8 Este 32 Nordeste 0.2 -- -- 100
2018-04-11 22:00:00 12.2 9 Norte 24 Norte 0 -- -- 100
2018-04-11 21:00:00 12.1 11 Norte 24 Nordeste 0 -- -- 100
2018-04-11 20:00:00 12.2 9 Norte 30 Norte 0 -- -- 100
2018-04-11 19:00:00 12.1 8 Norte 28 Nordeste 0.2 -- -- 100
2018-04-11 18:00:00 12.3 7 Sur 30 Nordeste 0.2 -- -- 100
2018-04-11 17:00:00 13 6 Este 23 Noroeste 0 -- -- 99
2018-04-11 16:00:00 13.6 9 Norte 23 Norte 0 -- -- 95
2018-04-11 15:00:00 15.1 8 Nordeste 23 Norte 0 -- -- 89
2018-04-11 14:00:00 13.7 7 Nordeste 21 Sudoeste 0 -- -- 95
2018-04-11 13:00:00 13.7 6 Noroeste 18 Oeste 0 -- -- 97
2018-04-11 12:00:00 13.6 6 Sudoeste 24 Norte 0 -- -- 100
2018-04-11 11:00:00 12.9 5 Oeste 19 Noroeste 0 -- -- 100
2018-04-11 10:00:00 12 5 Sudoeste 25 Noroeste 0 -- -- 100
2018-04-11 09:00:00 11.9 10 Nordeste 28 Noroeste 0 -- -- 100
2018-04-11 08:00:00 11.6 8 Sudeste 30 Nordeste 0 -- -- 100
2018-04-11 07:00:00 11.2 13 Norte 31 Norte 0 -- -- 100
2018-04-11 06:00:00 11.5 10 Norte 30 Norte 0 -- -- 100
2018-04-11 05:00:00 11 6 Norte 23 Norte 0 -- -- 100
2018-04-11 04:00:00 11 6 Sudeste 17 Nordeste 0 -- -- 100
2018-04-11 03:00:00 11 6 Sur 23 Norte 0 -- -- 99
2018-04-11 02:00:00 10.8 4 Sur 18 Norte 0 -- -- 98
2018-04-11 01:00:00 10.8 5 Sudoeste 18 Sudeste 0 -- -- 98
2018-04-11 00:00:00 10.7 7 Noroeste 18 Norte 0 -- -- 98
2018-04-10 23:00:00 11 6 Sudoeste 19 Nordeste 0 -- -- 99
2018-04-10 22:00:00 10.7 6 Sudeste 32 Norte 0 -- -- 96
2018-04-10 21:00:00 10.8 10 Sudoeste 28 Este 0 -- -- 96
2018-04-10 20:00:00 11 6 Sur 19 Noroeste 0 -- -- 94
2018-04-10 19:00:00 11.1 7 Sudoeste 18 Sudeste 0 -- -- 96
2018-04-10 18:00:00 11.5 6 Sudoeste 18 Sudeste 0 -- -- 97
2018-04-10 17:00:00 11.9 8 Sur 22 Nordeste 0 -- -- 98
2018-04-10 16:00:00 12.8 7 Sur 21 Sudeste 0 -- -- 93
2018-04-10 15:00:00 13.7 7 Este 16 Sur 0 -- -- 88
2018-04-10 14:00:00 13.8 7 Este 22 Sudeste 0 -- -- 85
2018-04-10 13:00:00 13.9 8 Sudeste 30 Este 0 -- -- 82
2018-04-10 12:00:00 13.4 11 Sudeste 27 Este 0 -- -- 88
2018-04-10 11:00:00 12.3 5 Sudeste 22 Este 0 -- -- 86
2018-04-10 10:00:00 11.3 9 Este 21 Este 0 -- -- 89
2018-04-10 09:00:00 10.4 9 Este 27 Nordeste 0 -- -- 90
2018-04-10 08:00:00 9.8 12 Sudeste 26 Este 0 -- -- 94
2018-04-10 07:00:00 9.7 8 Sudeste 27 Sudeste 0 -- -- 93
2018-04-10 06:00:00 9.8 10 Este 26 Este 0 -- -- 92
2018-04-10 05:00:00 9.7 10 Este 29 Este 0 -- -- 93
2018-04-10 04:00:00 9.5 12 Este 28 Este 0 -- -- 90
2018-04-10 03:00:00 9.6 12 Este 31 Este 0 -- -- 90
2018-04-10 02:00:00 9.4 10 Este 31 Este 0 -- -- 93
2018-04-10 01:00:00 9.7 11 Sudeste 33 Este 0 -- -- 97
2018-04-10 00:00:00 10.5 12 Sur 35 Sudeste 0.8 -- -- 98
2018-04-09 23:00:00 10.2 10 Sudeste 26 Este 0 -- -- 94
2018-04-09 22:00:00 10.2 11 Sudeste 24 Sudeste 0 -- -- 96
2018-04-09 21:00:00 10 9 Sudeste 34 Sudeste 0.2 -- -- 96
2018-04-09 20:00:00 10.3 12 Sudeste 28 Sudeste 0 -- -- 93
2018-04-09 19:00:00 10.9 11 Sur 26 Este 0 -- -- 89
2018-04-09 18:00:00 11.7 10 Sur 23 Sur 0 -- -- 85
2018-04-09 17:00:00 12.3 8 Sur 32 Nordeste 0 -- -- 84
2018-04-09 16:00:00 14.3 9 Sudeste 32 Sudeste 0 -- -- 73
2018-04-09 15:00:00 13.5 12 Sudeste 33 Este 0 -- -- 75
2018-04-09 14:00:00 13.4 10 Sur 26 Sudeste 0 -- -- 79
2018-04-09 13:00:00 11.8 10 Sur 29 Sudeste 0 -- -- 87
2018-04-09 12:00:00 11.8 11 Sudeste 25 Sudeste 0 -- -- 90
2018-04-09 11:00:00 10.2 9 Sudeste 25 Este 0.2 -- -- 98
2018-04-09 10:00:00 9.8 10 Sudeste 30 Sur 0 -- -- 98
2018-04-09 09:00:00 9.5 9 Sudeste 24 Este 0 -- -- 100
2018-04-09 08:00:00 8.8 10 Sur 24 Sudeste 0 -- -- 100
2018-04-09 07:00:00 10.1 10 Sudeste 34 Nordeste 0 -- -- 100
2018-04-09 06:00:00 10.9 12 Sudeste 31 Sudeste 0 -- -- 100
2018-04-09 05:00:00 11.5 10 Sudeste 37 Este 0 -- -- 100
2018-04-09 04:00:00 11.4 11 Sudeste 28 Sudeste 0 -- -- 100
2018-04-09 03:00:00 11.5 12 Sudeste 31 Este 0 -- -- 100
2018-04-09 02:00:00 11.9 12 Sudeste 29 Este 0 -- -- 100
2018-04-09 01:00:00 11.8 14 Este 48 Este 0.2 -- -- 100
2018-04-09 00:00:00 12 14 Sudeste 41 Este 0.4 -- -- 100
2018-04-08 23:00:00 12.2 11 Sudeste 35 Este 0.4 -- -- 100
2018-04-08 22:00:00 11.7 12 Sudeste 41 Norte 1.4 -- -- 100
2018-04-08 21:00:00 12 13 Sudeste 33 Este 0 -- -- 100
2018-04-08 20:00:00 12 8 Este 26 Sudeste 0.2 -- -- 100
2018-04-08 19:00:00 12 8 Sudeste 27 Este 0 -- -- 99
2018-04-08 18:00:00 12.5 9 Sudeste 28 Sudeste 0 -- -- 98
2018-04-08 17:00:00 13.2 9 Sudeste 20 Sudeste 0 -- -- 91
2018-04-08 16:00:00 13.5 8 Sudeste 23 Este 0 -- -- 95
2018-04-08 15:00:00 12.6 10 Sudeste 26 Sudeste 0.2 -- -- 100
2018-04-08 14:00:00 13.5 10 Sudeste 27 Este 0 -- -- 92
2018-04-08 13:00:00 11.6 8 Este 32 Este 0.2 -- -- 98
2018-04-08 12:00:00 11.6 12 Sudeste 28 Sudeste 0 -- -- 94
2018-04-08 11:00:00 12.2 11 Sudeste 25 Nordeste 0 -- -- 95
2018-04-08 10:00:00 10.5 12 Este 25 Este 0.2 -- -- 98
2018-04-08 09:00:00 10.5 9 Sudeste 22 Este 0 -- -- 92
2018-04-08 08:00:00 10.1 11 Este 34 Nordeste 0 -- -- 95
2018-04-08 07:00:00 10 11 Este 27 Este 0 -- -- 96
2018-04-08 06:00:00 10.4 9 Sudeste 22 Este 0 -- -- 93
2018-04-08 05:00:00 10.3 10 Sudeste 26 Este 0 -- -- 89
2018-04-08 04:00:00 10.4 8 Sudeste 27 Sudeste 0 -- -- 89
2018-04-08 03:00:00 10.6 10 Sudeste 26 Sudeste 0 -- -- 89
2018-04-08 02:00:00 10.6 9 Sudeste 29 Este 0 -- -- 89
2018-04-08 01:00:00 10.7 9 Sur 21 Sudeste 0 -- -- 89
2018-04-08 00:00:00 10.7 10 Sudoeste 23 Sudoeste 0 -- -- 86
2018-04-07 23:00:00 10.8 9 Sur 20 Sudeste 0 -- -- 85
2018-04-07 22:00:00 10.9 9 Sur 23 Este 0 -- -- 88
2018-04-07 21:00:00 11.1 10 Sudeste 22 Sur 0 -- -- 91
2018-04-07 20:00:00 11.4 7 Sur 21 Nordeste 0 -- -- 86
2018-04-07 19:00:00 12.5 8 Sur 21 Sudeste 0 -- -- 78
2018-04-07 18:00:00 13.6 8 Sur 19 Sudeste 0 -- -- 68
2018-04-07 17:00:00 14.8 7 Sudeste 21 Este 0 -- -- 64
2018-04-07 16:00:00 13.8 8 Sudoeste 20 Sudeste 0 -- -- 72
2018-04-07 15:00:00 14.8 6 Sudeste 17 Nordeste 0 -- -- 69
2018-04-07 14:00:00 14.5 7 Sudeste 21 Sudeste 0 -- -- 75
2018-04-07 13:00:00 13.8 8 Sudeste 20 Sur 0 -- -- 70
2018-04-07 12:00:00 12.4 6 Sur 21 Este 0 -- -- 83
2018-04-07 11:00:00 12.4 9 Sudeste 25 Este 0 -- -- 82
2018-04-07 10:00:00 10.7 8 Sur 34 Nordeste 0 -- -- 94
2018-04-07 09:00:00 10.5 7 Sur 27 Sudeste 0 -- -- 94
2018-04-07 08:00:00 10.6 10 Sudoeste 23 Sudeste 0 -- -- 96
2018-04-07 07:00:00 10.3 9 Sudeste 36 Este 0 -- -- 92
2018-04-07 06:00:00 10.5 9 Sudoeste 30 Norte 0 -- -- 94
2018-04-07 05:00:00 10.6 8 Norte 29 Este 0 -- -- 99
2018-04-07 04:00:00 10.5 9 Sudoeste 26 Norte 0 -- -- 99
2018-04-07 03:00:00 10.8 7 Nordeste 40 Nordeste 0 -- -- 98
2018-04-07 02:00:00 11.1 8 Sur 27 Nordeste 0 -- -- 98
2018-04-07 01:00:00 11.3 7 Sudoeste 31 Nordeste 0 -- -- 98
2018-04-07 00:00:00 11.3 10 Nordeste 29 Este 0 -- -- 99
2018-04-06 23:00:00 11.8 7 Oeste 30 Norte 0 -- -- 99
2018-04-06 22:00:00 12 11 Norte 33 Norte 0.2 -- -- 99
2018-04-06 21:00:00 12.2 4 Noroeste 26 Norte 0 -- -- 98
2018-04-06 20:00:00 12.5 10 Norte 35 Norte 0 -- -- 96
2018-04-06 19:00:00 13.5 9 Norte 23 Nordeste 0 -- -- 85
2018-04-06 18:00:00 14.1 6 Nordeste 18 Norte 0 -- -- 84
2018-04-06 17:00:00 14.6 8 Nordeste 26 Nordeste 0 -- -- 82
2018-04-06 16:00:00 18.1 10 Norte 25 Nordeste 0 -- -- 67
2018-04-06 15:00:00 18.8 13 Norte 28 Norte 0 -- -- 65
2018-04-06 14:00:00 18.6 11 Norte 24 Norte 0 -- -- 63
2018-04-06 13:00:00 17.8 7 Norte 19 Norte 0 -- -- 62
2018-04-06 12:00:00 17 7 Noroeste 20 Norte 0 -- -- 61
2018-04-06 11:00:00 14.7 6 Norte 13 Norte 0 -- -- 67
2018-04-06 10:00:00 12.9 6 Norte 16 Norte 0 -- -- 84
2018-04-06 09:00:00 10 13 Noroeste 17 Noroeste 0 -- -- 91
2018-04-06 08:00:00 9.3 5 Norte 9 Noroeste 0 -- -- 95
2018-04-06 07:00:00 9.6 4 Norte 13 Norte 0 -- -- 95
2018-04-06 06:00:00 9.2 4 Norte 10 Noroeste 0 -- -- 96
2018-04-06 05:00:00 9.2 7 Norte 11 Norte 0 -- -- 94
2018-04-06 04:00:00 10.2 3 Norte 13 Norte 0 -- -- 92
2018-04-06 03:00:00 10.5 2 Este 8 Norte 0 -- -- 91
2018-04-06 02:00:00 10.9 2 Este 14 Norte 0 -- -- 90
2018-04-06 01:00:00 11 3 Sudoeste 10 Noroeste 0 -- -- 93
2018-04-06 00:00:00 11 3 Sudoeste 12 Norte 0 -- -- 92
2018-04-05 23:00:00 11.2 4 Sur 10 Noroeste 0 -- -- 90
2018-04-05 22:00:00 11.5 3 Sudeste 9 Norte 0 -- -- 90
2018-04-05 21:00:00 11.6 2 Sudeste 8 Norte 0 -- -- 88
2018-04-05 20:00:00 13.4 3 Norte 12 Norte 0 -- -- 79
2018-04-05 19:00:00 15.4 6 Norte 13 Norte 0 -- -- 71
2018-04-05 18:00:00 16 3 Sudoeste 15 Nordeste 0 -- -- 69
2018-04-05 17:00:00 16.5 5 Sudeste 15 Norte 0 -- -- 68
2018-04-05 16:00:00 16.6 6 Noroeste 15 Sudeste 0 -- -- 68
2018-04-05 15:00:00 16.8 6 Sudeste 19 Sudeste 0 -- -- 66
2018-04-05 14:00:00 15.5 7 Sudeste 18 Este 0 -- -- 78
2018-04-05 13:00:00 14.3 7 Este 17 Sudeste 0 -- -- 75
2018-04-05 12:00:00 13.5 7 Sudeste 15 Sudeste 0 -- -- 84
2018-04-05 11:00:00 12.7 4 Este 15 Este 0 -- -- 82
2018-04-05 10:00:00 12.1 6 Este 14 Sudeste 0 -- -- 85
2018-04-05 09:00:00 10.8 5 Norte 12 Nordeste 0 -- -- 89
2018-04-05 08:00:00 10.5 3 Sudeste 17 Este 0 -- -- 92
2018-04-05 07:00:00 10.7 5 Sudeste 12 Este 0 -- -- 95
2018-04-05 06:00:00 10.6 3 Este 15 Nordeste 0 -- -- 93
2018-04-05 05:00:00 10.4 4 Este 16 Este 0 -- -- 91
2018-04-05 04:00:00 10.3 4 Este 12 Nordeste 0 -- -- 93
2018-04-05 03:00:00 10.3 3 Este 10 Sudeste 0 -- -- 96
2018-04-05 02:00:00 10.4 4 Sudeste 13 Nordeste 0 -- -- 97
2018-04-05 01:00:00 10.7 5 Sudeste 11 Sudeste 0 -- -- 95
2018-04-05 00:00:00 10.7 4 Sudeste 17 Este 0 -- -- 94
2018-04-04 23:00:00 10.9 4 Sudoeste 12 Este 0 -- -- 94
2018-04-04 22:00:00 11 2 Sudeste 10 Este 0 -- -- 96
2018-04-04 21:00:00 10.9 3 Este 12 Este 0 -- -- 95
2018-04-04 20:00:00 11.6 4 Sudeste 14 Este 0 -- -- 92
2018-04-04 19:00:00 12 5 Este 18 Este 0 -- -- 93
2018-04-04 18:00:00 12.7 6 Sudeste 15 Este 0 -- -- 92
2018-04-04 17:00:00 12.4 5 Sudeste 19 Nordeste 0 -- -- 95
2018-04-04 16:00:00 13 8 Sudeste 23 Sudeste 0 -- -- 97
2018-04-04 15:00:00 13.9 6 Este 22 Nordeste 0 -- -- 94
2018-04-04 14:00:00 13.3 3 Sudeste 15 Sudeste 0 -- -- 95
2018-04-04 13:00:00 12.9 7 Sudeste 18 Sudeste 0 -- -- 100
2018-04-04 12:00:00 12.6 8 Sudeste 23 Este 0.2 -- -- 100
2018-04-04 11:00:00 12.2 9 Sudeste 22 Sudeste 0.2 -- -- 100
2018-04-04 10:00:00 11.8 8 Sudeste 23 Sudeste 0 -- -- 100
2018-04-04 09:00:00 11.6 8 Este 23 Nordeste 0 -- -- 100
2018-04-04 08:00:00 11.9 6 Sudeste 17 Este 0 -- -- 100
2018-04-04 07:00:00 11.9 6 Sudeste 21 Este 0 -- -- 100
2018-04-04 06:00:00 12.1 9 Sudeste 24 Este 0 -- -- 100
2018-04-04 05:00:00 11.6 5 Sudeste 12 Norte 0 -- -- 100
2018-04-04 04:00:00 11.6 4 Sudeste 28 Sudeste 0 -- -- 100
2018-04-04 03:00:00 11.8 6 Sudeste 17 Sudeste 0 -- -- 100
2018-04-04 02:00:00 12 6 Sudeste 19 Este 0 -- -- 100
2018-04-04 01:00:00 12.2 5 Sudeste 17 Nordeste 0 -- -- 99
2018-04-04 00:00:00 12.1 4 Sur 16 Nordeste 0 -- -- 99
2018-04-03 23:00:00 12.2 5 Sudoeste 16 Sudoeste 0 -- -- 98
2018-04-03 22:00:00 12.3 6 Sur 15 Este 0 -- -- 98
2018-04-03 21:00:00 12.4 5 Sudoeste 16 Sudoeste 0 -- -- 95
2018-04-03 20:00:00 12.9 4 Sudoeste 14 Nordeste 0 -- -- 91
2018-04-03 19:00:00 14 4 Oeste 12 Sudoeste 0 -- -- 83
2018-04-03 18:00:00 16 5 Oeste 15 Sudoeste 0 -- -- 77
2018-04-03 17:00:00 15.3 4 Este 21 Nordeste 0 -- -- 78
2018-04-03 16:00:00 16.8 5 Este 19 Norte 0 -- -- 71
2018-04-03 15:00:00 15.8 6 Este 18 Sudeste 0 -- -- 71
2018-04-03 14:00:00 15.7 5 Sudeste 17 Este 0 -- -- 76
2018-04-03 13:00:00 14.3 5 Este 18 Sudeste 0 -- -- 83
2018-04-03 12:00:00 13.5 4 Nordeste 17 Sudeste 0 -- -- 90
2018-04-03 11:00:00 13.2 6 Sudeste 13 Sur 0 -- -- 95
2018-04-03 10:00:00 12.4 5 Sudoeste 13 Nordeste 0 -- -- 96
2018-04-03 09:00:00 11.4 4 Sur 17 Norte 0 -- -- 98
2018-04-03 08:00:00 11.3 5 Sur 13 Noroeste 0 -- -- 99
2018-04-03 07:00:00 11.2 4 Norte 8 Norte 0 -- -- 99
2018-04-03 06:00:00 10.7 4 Noroeste 8 Noroeste 0 -- -- 98
2018-04-03 05:00:00 10.6 2 Oeste 5 Sudoeste 0 -- -- 93
2018-04-03 04:00:00 11.1 0 Calma 8 Sudoeste 0 -- -- 94
2018-04-03 03:00:00 10.9 4 Sudoeste 8 Sudoeste 0 -- -- 92
2018-04-03 02:00:00 11.3 2 Sur 8 Noroeste 0 -- -- 94
2018-04-03 01:00:00 11.6 3 Sudeste 10 Este 0 -- -- 96
2018-04-03 00:00:00 11.9 5 Este 14 Nordeste 0 -- -- 98
2018-04-02 23:00:00 12.2 5 Sudoeste 19 Nordeste 0 -- -- 99
2018-04-02 22:00:00 12.2 6 Sudoeste 27 Este 0 -- -- 97
2018-04-02 21:00:00 12.1 8 Este 23 Nordeste 0 -- -- 98
2018-04-02 20:00:00 12.4 10 Nordeste 31 Nordeste 0 -- -- 97
2018-04-02 19:00:00 13.1 6 Noroeste 22 Norte 0 -- -- 93
2018-04-02 18:00:00 14.1 8 Norte 21 Norte 0 -- -- 86
2018-04-02 17:00:00 15.3 6 Noroeste 20 Noroeste 0 -- -- 81
2018-04-02 16:00:00 17.1 7 Norte 18 Nordeste 0 -- -- 69
2018-04-02 15:00:00 15.5 9 Noroeste 26 Norte 0 -- -- 76
2018-04-02 14:00:00 14.9 8 Norte 21 Norte 0 -- -- 81
2018-04-02 13:00:00 16 8 Norte 21 Nordeste 0 -- -- 71
2018-04-02 12:00:00 15.8 6 Norte 19 Noroeste 0 -- -- 76
2018-04-02 11:00:00 13.2 8 Norte 30 Norte 0 -- -- 90
2018-04-02 10:00:00 12.4 12 Norte 32 Nordeste 0 -- -- 99
2018-04-02 09:00:00 11.7 8 Nordeste 22 Norte 0 -- -- 96
2018-04-02 08:00:00 11.5 9 Noroeste 18 Noroeste 0 -- -- 97
2018-04-02 07:00:00 11.8 5 Norte 19 Noroeste 0 -- -- 97
2018-04-02 06:00:00 11.3 6 Norte 22 Oeste 0 -- -- 95
2018-04-02 05:00:00 12.1 17 Noroeste 28 Norte 0 -- -- 96
2018-04-02 04:00:00 12.7 16 Noroeste 46 Oeste 0 -- -- 97
2018-04-02 03:00:00 12.3 24 Noroeste 41 Oeste 0 -- -- 97
2018-04-02 02:00:00 12.9 28 Noroeste 41 Noroeste 0 -- -- 84
2018-04-02 01:00:00 13.2 23 Noroeste 35 Noroeste 0 -- -- 85
2018-04-02 00:00:00 12.4 16 Noroeste 49 Noroeste 0 -- -- 88
2018-04-01 23:00:00 11.8 27 Noroeste 46 Noroeste 0 -- -- 85
2018-04-01 22:00:00 11.5 22 Noroeste 53 Noroeste 0 -- -- 89
2018-04-01 21:00:00 11.7 24 Noroeste 41 Noroeste 0 -- -- 87
2018-04-01 20:00:00 12.6 11 Noroeste 37 Noroeste 0 -- -- 81
2018-04-01 19:00:00 16.4 12 Noroeste 24 Oeste 0 -- -- 66
2018-04-01 18:00:00 16.9 12 Noroeste 25 Noroeste 0 -- -- 67
2018-04-01 17:00:00 17.8 7 Sur 17 Sur 0 -- -- 66
2018-04-01 16:00:00 17.7 13 Noroeste 29 Noroeste 0 -- -- 61
2018-04-01 15:00:00 18.1 15 Noroeste 32 Noroeste 0 -- -- 62
2018-04-01 14:00:00 16.7 19 Noroeste 35 Oeste 0 -- -- 64
2018-04-01 13:00:00 14.6 15 Noroeste 34 Noroeste 0 -- -- 70
2018-04-01 12:00:00 14.2 15 Noroeste 27 Noroeste 0 -- -- 72
2018-04-01 11:00:00 13.9 14 Noroeste 28 Noroeste 0 -- -- 72
2018-04-01 10:00:00 11.9 17 Noroeste 33 Noroeste 0 -- -- 79
2018-04-01 09:00:00 10.4 18 Noroeste 32 Noroeste 0 -- -- 86
2018-04-01 08:00:00 9.6 20 Noroeste 28 Noroeste 0 -- -- 89
2018-04-01 07:00:00 9.5 9 Noroeste 20 Noroeste 0 -- -- 91
2018-04-01 06:00:00 9.7 14 Noroeste 26 Norte 0 -- -- 92
2018-04-01 05:00:00 9.6 14 Noroeste 20 Noroeste 0 -- -- 95
2018-04-01 04:00:00 10.3 8 Norte 12 Norte 0 -- -- 95
2018-04-01 03:00:00 10.9 5 Norte 13 Norte 0 -- -- 95
2018-04-01 02:00:00 11.1 2 Norte 9 Nordeste 0 -- -- 96
2018-04-01 01:00:00 10.9 3 Este 12 Nordeste 0 -- -- 93
2018-04-01 00:00:00 11.5 0 Calma 12 Norte 0 -- -- 93
2018-03-31 23:00:00 11.7 4 Norte 16 Norte 0 -- -- 95
2018-03-31 22:00:00 12.1 4 Norte 13 Noroeste 0 -- -- 95
2018-03-31 21:00:00 12.6 4 Norte 12 Norte 0 -- -- 95
2018-03-31 20:00:00 13.5 5 Norte 9 Norte 0 -- -- 89
2018-03-31 19:00:00 14.6 6 Norte 12 Norte 0 -- -- 83
2018-03-31 18:00:00 17.6 4 Sur 13 Sudeste 0 -- -- 72
2018-03-31 17:00:00 17.6 4 Sudeste 15 Sudeste 0 -- -- 71
2018-03-31 16:00:00 18 7 Sudeste 15 Sudeste 0 -- -- 71
2018-03-31 15:00:00 17.1 5 Sudeste 14 Este 0 -- -- 74
2018-03-31 14:00:00 14.9 4 Sudoeste 14 Norte 0 -- -- 81
2018-03-31 13:00:00 13.9 5 Sur 13 Sudeste 0 -- -- 84
2018-03-31 12:00:00 12.2 5 Nordeste 14 Este 0 -- -- 89
2018-03-31 11:00:00 11.6 6 Norte 14 Noroeste 0 -- -- 93
2018-03-31 10:00:00 11.5 3 Norte 18 Norte 0 -- -- 93
2018-03-31 09:00:00 10.3 8 Norte 24 Norte 0 -- -- 96
2018-03-31 08:00:00 9.9 4 Sur 22 Norte 0 -- -- 96
2018-03-31 07:00:00 9.8 4 Nordeste 13 Este 0 -- -- 96
2018-03-31 06:00:00 9.7 4 Este 17 Nordeste 0 -- -- 96
2018-03-31 05:00:00 9.7 5 Sur 19 Norte 0 -- -- 96
2018-03-31 04:00:00 9.7 6 Sudoeste 15 Sudoeste 0 -- -- 97
2018-03-31 03:00:00 9.8 4 Sur 12 Norte 0 -- -- 97
2018-03-31 02:00:00 9.7 5 Este 13 Noroeste 0 -- -- 96
2018-03-31 01:00:00 9.7 3 Oeste 16 Noroeste 0 -- -- 96
2018-03-31 00:00:00 9.6 4 Sudeste 13 Sudeste 0 -- -- 95
2018-03-30 23:00:00 9.7 5 Sur 15 Norte 0 -- -- 95
2018-03-30 22:00:00 9.8 4 Sudeste 19 Este 0 -- -- 96
2018-03-30 21:00:00 10 5 Sur 16 Nordeste 0 -- -- 97
2018-03-30 20:00:00 10.4 6 Sur 18 Sur 0 -- -- 98
2018-03-30 19:00:00 10.7 5 Sur 17 Este 0 -- -- 97
2018-03-30 18:00:00 11.2 4 Sudeste 19 Sudeste 0 -- -- 98
2018-03-30 17:00:00 11.1 7 Sur 17 Sudeste 0 -- -- 100
2018-03-30 16:00:00 11.4 7 Sudeste 18 Este 0 -- -- 100
2018-03-30 15:00:00 11.8 6 Sur 22 Este 0 -- -- 100
2018-03-30 14:00:00 12.1 6 Sudoeste 16 Norte 0 -- -- 100
2018-03-30 13:00:00 11.8 5 Sur 22 Este 0.2 -- -- 100
2018-03-30 12:00:00 12 8 Sur 20 Oeste 0 -- -- 100
2018-03-30 11:00:00 12.1 6 Sudeste 17 Nordeste 0 -- -- 100
2018-03-30 10:00:00 11.8 5 Sudeste 14 Este 0 -- -- 100
2018-03-30 09:00:00 11.5 5 Sudeste 19 Norte 0 -- -- 100
2018-03-30 08:00:00 11.4 7 Sudeste 23 Sudeste 0 -- -- 100
2018-03-30 07:00:00 11 3 Sudoeste 18 Norte 0 -- -- 100
2018-03-30 06:00:00 11.1 6 Sur 17 Nordeste 0 -- -- 100
2018-03-30 05:00:00 11.1 5 Sudeste 14 Nordeste 0 -- -- 100
2018-03-30 04:00:00 11.3 3 Sur 18 Este 0 -- -- 100
2018-03-30 03:00:00 11.5 6 Sudeste 17 Sudeste 0 -- -- 100
2018-03-30 02:00:00 11.6 5 Sur 21 Este 0 -- -- 100
2018-03-30 01:00:00 11.9 5 Sur 19 Este 0 -- -- 100
2018-03-30 00:00:00 12.2 6 Sur 24 Nordeste 0 -- -- 100
2018-03-29 23:00:00 12.3 8 Sudeste 21 Norte 0 -- -- 100
2018-03-29 22:00:00 12.7 6 Sur 24 Nordeste 0 -- -- 100
2018-03-29 21:00:00 12.9 4 Este 15 Nordeste 0 -- -- 99
2018-03-29 20:00:00 13.1 3 Sudeste 15 Nordeste 0 -- -- 99
2018-03-29 19:00:00 13.3 3 Nordeste 15 Noroeste 0 -- -- 99
2018-03-29 18:00:00 13.6 3 Norte 13 Norte 0 -- -- 99
2018-03-29 17:00:00 14 5 Norte 17 Nordeste 0 -- -- 96
2018-03-29 16:00:00 14.3 5 Norte 13 Nordeste 0 -- -- 93
2018-03-29 15:00:00 16 8 Norte 15 Norte 0 -- -- 87
2018-03-29 14:00:00 17 7 Norte 14 Norte 0 -- -- 82
2018-03-29 13:00:00 16.8 6 Norte 13 Nordeste 0 -- -- 82
2018-03-29 12:00:00 16.5 5 Norte 14 Norte 0 -- -- 81
2018-03-29 11:00:00 15.8 4 Norte 13 Sudoeste 0 -- -- 79
2018-03-29 10:00:00 14.2 3 Noroeste 15 Este 0 -- -- 83
2018-03-29 09:00:00 13.1 5 Este 17 Nordeste 0 -- -- 74
2018-03-29 08:00:00 12.4 8 Norte 13 Nordeste 0 -- -- 97
2018-03-29 07:00:00 13.3 3 Norte 14 Norte 0 -- -- 98
2018-03-29 06:00:00 13.2 8 Norte 16 Norte 0 -- -- 97
2018-03-29 05:00:00 13.8 9 Nordeste 18 Norte 0 -- -- 90
2018-03-29 04:00:00 17.4 4 Sudeste 9 Sudeste 0 -- -- 29
2018-03-29 03:00:00 16.8 6 Sur 12 Este 0 -- -- 33
2018-03-29 02:00:00 17.9 8 Nordeste 12 Nordeste 0 -- -- 33
2018-03-29 01:00:00 18.5 4 Sudeste 9 Sudoeste 0 -- -- 28
2018-03-29 00:00:00 18.5 4 Sudoeste 13 Sudoeste 0 -- -- 32
2018-03-28 23:00:00 17.9 6 Sudeste 17 Sudoeste 0 -- -- 36
2018-03-28 22:00:00 17.5 10 Sudoeste 17 Sudoeste 0 -- -- 39
2018-03-28 21:00:00 17.7 5 Sudeste 16 Sudeste 0 -- -- 34
2018-03-28 20:00:00 18.7 13 Sudeste 21 Sudeste 0 -- -- 37
2018-03-28 19:00:00 19.6 13 Sur 18 Sur 0 -- -- 30
2018-03-28 18:00:00 21.4 12 Sudeste 21 Sur 0 -- -- 35
2018-03-28 17:00:00 20.4 13 Sur 25 Sur 0 -- -- 34
2018-03-28 16:00:00 19.8 15 Sur 20 Sur 0 -- -- 35
2018-03-28 15:00:00 20.6 10 Sur 24 Sudeste 0 -- -- 37
2018-03-28 14:00:00 20.7 13 Sur 29 Sudeste 0 -- -- 34
2018-03-28 13:00:00 19.5 17 Sur 35 Sur 0 -- -- 37
2018-03-28 12:00:00 19.5 17 Sur 32 Sudeste 0 -- -- 40
2018-03-28 11:00:00 20.2 14 Sur 24 Sudeste 0 -- -- 40
2018-03-28 10:00:00 18.6 11 Sudeste 21 Sur 0 -- -- 44
2018-03-28 09:00:00 18.4 15 Sur 30 Sur 0 -- -- 43
2018-03-28 08:00:00 18.3 19 Sur 39 Sur 0 -- -- 40
2018-03-28 07:00:00 13.4 9 Sudoeste 15 Sur 0 -- -- 74
2018-03-28 06:00:00 12.3 6 Norte 17 Norte 0 -- -- 100
2018-03-28 05:00:00 12.7 13 Norte 16 Norte 0 -- -- 100
2018-03-28 04:00:00 12.5 10 Norte 15 Norte 0 -- -- 100
2018-03-28 03:00:00 12.2 6 Nordeste 15 Norte 0 -- -- 100
2018-03-28 02:00:00 12.1 6 Nordeste 14 Nordeste 0 -- -- 100
2018-03-28 01:00:00 12.4 9 Norte 13 Norte 0 -- -- 100
2018-03-28 00:00:00 11.9 3 Sudeste 10 Este 0 -- -- 100
2018-03-27 23:00:00 12 4 Sudeste 11 Norte 0 -- -- 100
2018-03-27 22:00:00 11.9 4 Este 13 Este 0 -- -- 100
2018-03-27 21:00:00 11.8 4 Este 13 Este 0 -- -- 100
2018-03-27 20:00:00 11.9 4 Sudeste 18 Este 0 -- -- 100
2018-03-27 19:00:00 12 4 Sudeste 12 Este 0 -- -- 100
2018-03-27 18:00:00 11.8 6 Sudeste 13 Nordeste 0 -- -- 100
2018-03-27 17:00:00 11.7 5 Este 18 Sudeste 0 -- -- 99
2018-03-27 16:00:00 11.9 5 Sudeste 17 Nordeste 0 -- -- 100
2018-03-27 15:00:00 11.9 5 Sur 17 Este 0 -- -- 99
2018-03-27 14:00:00 11.7 4 Sur 15 Sudeste 0 -- -- 98
2018-03-27 13:00:00 12 5 Sudeste 18 Este 0 -- -- 96
2018-03-27 12:00:00 11.3 6 Sudeste 14 Este 0 -- -- 95
2018-03-27 11:00:00 11.1 5 Sudeste 15 Sudeste 0 -- -- 98
2018-03-27 10:00:00 10.6 5 Sudoeste 15 Sudeste 0 -- -- 99
2018-03-27 09:00:00 10.2 4 Sudeste 18 Norte 0 -- -- 99
2018-03-27 08:00:00 10 6 Sudeste 21 Nordeste 0 -- -- 99
2018-03-27 07:00:00 10.2 5 Sudeste 14 Este 0 -- -- 99
2018-03-27 06:00:00 10.3 8 Sur 17 Sudeste 0 -- -- 99
2018-03-27 05:00:00 10.2 8 Sur 19 Sudeste 0 -- -- 98
2018-03-27 04:00:00 10.1 7 Sudeste 17 Nordeste 0 -- -- 97
2018-03-27 03:00:00 10.1 4 Sur 19 Este 0 -- -- 97
2018-03-27 02:00:00 10.5 7 Sudeste 20 Nordeste 0 -- -- 99
2018-03-27 01:00:00 10.4 6 Sur 23 Sudeste 0 -- -- 98
2018-03-27 00:00:00 10.3 7 Sur 18 Norte 0 -- -- 99
2018-03-26 23:00:00 10.6 7 Sudeste 18 Sudeste 0 -- -- 99
2018-03-26 22:00:00 10.7 8 Sudeste 31 Noroeste 0 -- -- 99
2018-03-26 21:00:00 10.7 5 Sur 16 Este 0 -- -- 98
2018-03-26 20:00:00 10.8 6 Sur 19 Este 0 -- -- 98
2018-03-26 19:00:00 11.4 9 Sudeste 19 Sudeste 0 -- -- 97
2018-03-26 18:00:00 11.4 7 Sudeste 25 Sudeste 0 -- -- 94
2018-03-26 17:00:00 12.4 6 Sur 22 Este 0 -- -- 95
2018-03-26 16:00:00 12.1 6 Sur 22 Nordeste 0 -- -- 94
2018-03-26 15:00:00 12.3 7 Sudeste 24 Este 0 -- -- 96
2018-03-26 14:00:00 13 5 Este 26 Sudeste 0 -- -- 94
2018-03-26 13:00:00 11.9 8 Este 22 Este 0 -- -- 99
2018-03-26 12:00:00 11.7 7 Este 22 Sudeste 0 -- -- 100
2018-03-26 11:00:00 11.1 8 Sur 22 Este 0 -- -- 100
2018-03-26 10:00:00 10.7 8 Sudeste 24 Este 0 -- -- 100
2018-03-26 09:00:00 10.8 7 Este 26 Este 0 -- -- 100
2018-03-26 08:00:00 11.5 5 Sur 19 Sudeste 0 -- -- 100
2018-03-26 07:00:00 11.8 8 Sudeste 26 Este 0 -- -- 100
2018-03-26 06:00:00 12 9 Sudeste 22 Este 1.8 -- -- 100
2018-03-26 05:00:00 12 6 Sur 16 Sur 0.2 -- -- 100
2018-03-26 04:00:00 11.6 4 Sur 23 Este 0 -- -- 100
2018-03-26 03:00:00 12 7 Sudeste 21 Este 0 -- -- 100
2018-03-26 02:00:00 11.8 6 Sudeste 24 Sudeste 0 -- -- 100
2018-03-26 01:00:00 11.8 8 Sudeste 29 Nordeste 0 -- -- 100
2018-03-26 00:00:00 11.5 12 Sudeste 26 Este 0 -- -- 100
2018-03-25 23:00:00 11.7 10 Sudeste 25 Nordeste 0 -- -- 100
2018-03-25 22:00:00 11.6 6 Sudeste 18 Nordeste 0 -- -- 100
2018-03-25 21:00:00 11.2 5 Sur 16 Nordeste 0 -- -- 100
2018-03-25 20:00:00 11.4 7 Sudeste 22 Sudeste 0 -- -- 98
2018-03-25 19:00:00 11.6 7 Sur 16 Este 0 -- -- 95
2018-03-25 18:00:00 12.1 5 Sudoeste 15 Este 0 -- -- 96
2018-03-25 17:00:00 12.2 5 Sudeste 22 Nordeste 0 -- -- 96
2018-03-25 16:00:00 12.3 8 Sur 21 Sudeste 0 -- -- 96
2018-03-25 15:00:00 12 7 Sudeste 25 Este 0 -- -- 96
2018-03-25 14:00:00 11.8 7 Este 26 Sudeste 0 -- -- 96
2018-03-25 13:00:00 11.8 8 Sudeste 24 Este 0 -- -- 94
2018-03-25 12:00:00 11.8 9 Sudeste 26 Este 0 -- -- 92
2018-03-25 11:00:00 10.9 11 Este 28 Nordeste 0 -- -- 98
2018-03-25 10:00:00 10.6 9 Sudeste 30 Sudeste 0 -- -- 100
2018-03-25 09:00:00 10 8 Este 28 Sudeste 0 -- -- 100
2018-03-25 08:00:00 10 9 Sudeste 21 Sudeste 0 -- -- 100
2018-03-25 07:00:00 10.1 9 Este 24 Norte 0 -- -- 100
2018-03-25 06:00:00 10.2 6 Este 23 Nordeste 0 -- -- 100
2018-03-25 05:00:00 10.4 7 Sudeste 18 Este 0 -- -- 100
2018-03-25 04:00:00 11.1 10 Sudeste 24 Este 0 -- -- 100
2018-03-25 00:00:00 11.9 6 Sur 23 Este 0 -- -- 100
2018-03-24 23:00:00 12.2 10 Sudeste 27 Nordeste 0 -- -- 100
2018-03-24 22:00:00 12.1 10 Sudeste 26 Sudeste 0 -- -- 100
2018-03-24 21:00:00 12 8 Este 21 Nordeste 0 -- -- 99
2018-03-24 20:00:00 12.1 6 Sudeste 21 Sudeste 0 -- -- 98
2018-03-24 19:00:00 12.4 5 Sudeste 19 Este 0 -- -- 96
2018-03-24 18:00:00 12.7 6 Sudeste 19 Nordeste 0 -- -- 97
2018-03-24 17:00:00 13.8 5 Sur 18 Nordeste 0 -- -- 92
2018-03-24 16:00:00 15.2 5 Oeste 17 Nordeste 0 -- -- 76
2018-03-24 15:00:00 15.6 8 Este 24 Nordeste 0 -- -- 76
2018-03-24 14:00:00 16.4 8 Sudeste 22 Este 0 -- -- 72
2018-03-24 13:00:00 16.5 8 Sudeste 23 Este 0 -- -- 70
2018-03-24 12:00:00 13.7 5 Este 20 Sudeste 0 -- -- 89
2018-03-24 11:00:00 12.6 7 Este 18 Este 0 -- -- 93
2018-03-24 10:00:00 12 7 Sudeste 22 Norte 0 -- -- 97
2018-03-24 09:00:00 11.4 4 Sur 15 Este 0 -- -- 98
2018-03-24 08:00:00 10.7 4 Sudeste 19 Este 0 -- -- 98
2018-03-24 07:00:00 10.8 6 Sudeste 19 Sudeste 0 -- -- 100
2018-03-24 06:00:00 10.4 4 Sur 10 Norte 0 -- -- 99
2018-03-24 05:00:00 10.2 3 Sudeste 10 Sudoeste 0 -- -- 98
2018-03-24 04:00:00 10 3 Nordeste 11 Nordeste 0 -- -- 97
2018-03-24 03:00:00 10.4 3 Sudoeste 11 Este 0 -- -- 97
2018-03-24 02:00:00 10.5 3 Sudeste 16 Este 0 -- -- 96
2018-03-24 01:00:00 10.6 4 Sudeste 16 Este 0 -- -- 97
2018-03-24 00:00:00 10.7 6 Sudeste 15 Este 0 -- -- 98
2018-03-23 23:00:00 10.8 6 Sudeste 19 Nordeste 0 -- -- 97
2018-03-23 22:00:00 10.8 6 Sudeste 16 Nordeste 0 -- -- 98
2018-03-23 21:00:00 10.5 6 Este 16 Nordeste 0 -- -- 96
2018-03-23 20:00:00 10.5 7 Este 15 Sudeste 0 -- -- 95
2018-03-23 19:00:00 10.9 7 Sudeste 16 Sudeste 0 -- -- 92
2018-03-23 18:00:00 11.3 5 Sudeste 13 Nordeste 0 -- -- 90
2018-03-23 17:00:00 12 5 Sudeste 17 Este 0 -- -- 86
2018-03-23 16:00:00 12 5 Sur 15 Este 0 -- -- 87
2018-03-23 15:00:00 12.7 6 Sudoeste 14 Este 0 -- -- 83
2018-03-23 14:00:00 12.6 4 Sudoeste 14 Este 0 -- -- 83
2018-03-23 13:00:00 12.1 5 Este 19 Este 0 -- -- 85
2018-03-23 12:00:00 11.8 5 Sudeste 20 Sudeste 0 -- -- 87
2018-03-23 11:00:00 11.7 5 Sur 17 Sudeste 0 -- -- 88
2018-03-23 10:00:00 11.2 7 Sudeste 17 Sudeste 0 -- -- 91
2018-03-23 09:00:00 10.1 6 Sudeste 16 Nordeste 0 -- -- 93
2018-03-23 08:00:00 9.3 4 Sur 14 Sudeste 0 -- -- 95
2018-03-23 07:00:00 9.2 4 Sur 15 Sudeste 0 -- -- 96
2018-03-23 06:00:00 9.3 5 Sudeste 17 Nordeste 0 -- -- 97
2018-03-23 05:00:00 9.3 4 Sudoeste 16 Sudeste 0 -- -- 95
2018-03-23 04:00:00 9.3 5 Sudeste 14 Sudeste 0 -- -- 95
2018-03-23 03:00:00 9.4 6 Sur 16 Nordeste 0 -- -- 95
2018-03-23 02:00:00 9.5 5 Sur 11 Sudeste 0 -- -- 95
2018-03-23 01:00:00 9.5 5 Este 21 Sudeste 0 -- -- 93
2018-03-23 00:00:00 9.6 5 Sudeste 15 Sudeste 0 -- -- 92